Location: Fontevrault
(47.1823°N, 0.0493°E)
Time: 19:07:59
(UTC+00:00)

Sep Motor Cover - Visible Passes

Search period start: 16 January 2022 00:00
Search period end: 26 January 2022 00:00
Orbit: 839 x 1118 km, 71.0° (Epoch: 15 January)

Date Brightness Start Highest point End Pass type
(mag) Time Alt. Az. Time Alt. Az. Time Alt. Az.
16 Jan ? 17:04:41 10° S 17:10:03 43° ESE 17:15:46 10° NE visible
16 Jan ? 18:51:52 10° WSW 18:57:12 37° NW 19:02:38 11° NNE visible
16 Jan ? 20:44:34 10° NW 20:46:23 11° NNW 20:47:23 11° NNW visible
17 Jan ? 17:30:42 10° SSW 17:36:26 82° ESE 17:42:35 10° NNE visible
17 Jan ? 19:19:43 10° W 19:24:19 23° NW 19:29:03 10° N visible
18 Jan ? 17:57:24 10° SW 18:03:05 57° WNW 18:09:12 10° NNE visible
18 Jan ? 19:48:17 10° WNW 19:51:43 15° NNW 19:55:16 10° N visible
19 Jan ? 18:24:44 10° WSW 18:30:00 33° NW 18:35:37 10° NNE visible
19 Jan ? 20:17:58 10° NW 20:19:20 11° NNW 20:20:43 10° N visible
20 Jan ? 18:52:42 10° W 18:57:10 21° NW 19:01:52 10° N visible
21 Jan ? 17:30:10 10° SW 17:35:50 51° NW 17:41:56 10° NNE visible
21 Jan ? 19:21:25 10° WNW 19:24:37 14° NNW 19:27:56 10° N visible
22 Jan ? 17:57:38 10° WSW 18:02:48 31° NW 18:08:19 10° NNE visible
22 Jan ? 19:51:37 10° NNW 19:52:18 10° NNW 19:52:59 10° NNW visible
23 Jan ? 18:25:44 10° W 18:30:03 20° NW 18:34:35 10° N visible
24 Jan ? 18:54:35 10° WNW 18:57:32 13° NNW 19:00:35 10° N visible
25 Jan ? 17:30:33 10° WSW 17:35:37 28° NW 17:41:02 10° NNE visible
